Date String (YYYY-MM-DD hh:mm:ss) UTC,Instrument flags,Ambient pressure (hPa),Sample flow (lpm),Bypass flow (lpm),Sample temperature (°C),Ambient temperature (°C),ASC tube jacket temperature (°C),LED temperature (°C),Box temperature (°C),Sample RH (%),Span deviation,Mass concentration (μg/m³),Mass concentration (μg/m³),Mass concentration (μg/m³)
DateTimeUTC,F1_M11,P_M11,Q1_M11,Q2_M11,T1_M11,T2_M11,T3_M11,T4_M11,T5_M11,U1_M11,ZSPAN_M11,X0_M11,X2_M11,X1_M11
2022-06-18 10:00:00,,0823.6,5.00,0.00,29.8,27.6,00.0,38.6,31.5,19.3,0000.0,0012.00,0006.96,0005.47
2022-06-18 10:01:00,,0823.5,5.00,0.00,29.7,27.6,00.0,38.6,31.4,19.4,0000.0,0012.07,0006.97,0005.47
2022-06-18 10:02:00,,0823.4,5.01,0.00,29.7,27.7,00.0,38.6,31.4,19.4,0000.0,0012.03,0007.00,0005.50
2022-06-18 10:03:00,,0823.4,5.00,0.00,29.7,27.8,00.0,38.5,31.4,19.5,0003.9,0012.08,0007.04,0005.51
2022-06-18 10:04:00,,0823.4,5.00,0.00,29.7,27.9,00.0,38.5,31.4,19.5,0004.8,0012.39,0006.99,0005.52
2022-06-18 10:05:00,,0823.4,5.01,0.00,29.7,28.1,00.0,38.5,31.5,19.6,0004.9,0012.59,0007.01,0005.54
2022-06-18 10:06:00,,0823.5,5.00,0.00,29.7,28.2,00.0,38.5,31.5,19.9,0004.6,0012.77,0007.01,0005.54
2022-06-18 10:07:00,,0823.6,5.00,0.00,29.7,28.3,00.0,38.5,31.5,20.0,0004.2,0013.03,0007.05,0005.57
2022-06-18 10:08:00,,0823.7,5.00,0.00,29.7,28.4,00.0,38.5,31.5,19.9,0004.1,0013.06,0007.08,0005.60
2022-06-18 10:09:00,,0823.7,5.00,0.00,29.7,28.5,00.0,38.5,31.6,19.9,0003.9,0012.98,0007.09,0005.64
2022-06-18 10:10:00,,0823.7,5.00,0.00,29.7,28.5,00.0,38.5,31.6,19.8,0003.4,0012.94,0007.09,0005.68
2022-06-18 10:11:00,,0823.7,5.01,0.00,29.7,28.6,00.0,38.5,31.6,19.8,0001.2,0013.00,0007.17,0005.71
2022-06-18 10:12:00,,0823.7,5.00,0.00,29.7,28.7,00.0,38.6,31.6,19.7,0001.1,0013.26,0007.29,0005.73
2022-06-18 10:13:00,,0823.7,4.99,0.00,29.8,28.7,00.0,38.6,31.7,19.7,0000.0,0013.29,0007.31,0005.73
2022-06-18 10:14:00,,0823.7,5.00,0.00,29.8,28.8,00.0,38.6,31.7,19.7,0000.0,0013.30,0007.32,0005.75
2022-06-18 10:15:00,,0823.7,5.00,0.00,29.8,28.8,00.0,38.6,31.8,19.6,0000.0,0013.07,0007.34,0005.75
2022-06-18 10:16:00,,0823.7,5.01,0.00,29.8,28.9,00.0,38.6,31.8,19.6,0000.0,0013.00,0007.30,0005.74
2022-06-18 10:17:00,,0823.6,4.99,0.00,29.9,28.9,00.0,38.6,31.8,19.6,0000.0,0012.92,0007.29,0005.75
2022-06-18 10:18:00,,0823.7,5.00,0.00,29.9,29.0,00.0,38.6,31.8,19.6,0000.0,0012.61,0007.26,0005.75
2022-06-18 10:19:00,,0823.6,5.00,0.00,29.9,29.0,00.0,38.7,31.8,19.7,0000.0,0012.56,0007.26,0005.76
2022-06-18 10:20:00,,0823.7,5.00,0.00,29.9,29.0,00.0,38.7,31.9,19.6,0000.0,0012.38,0007.24,0005.75
2022-06-18 10:21:00,,0823.6,5.01,0.00,29.9,28.9,00.0,38.7,31.8,19.6,0000.0,0012.31,0007.26,0005.75
2022-06-18 10:22:00,,0823.6,5.00,0.00,29.9,28.0,00.0,38.6,31.6,19.6,0000.0,0012.32,0007.28,0005.77
2022-06-18 10:23:00,,0823.6,5.00,0.00,29.8,27.6,00.0,38.6,31.5,19.8,0000.0,0012.13,0007.19,0005.80
2022-06-18 10:24:00,,0823.6,4.99,0.00,29.8,27.6,00.0,38.6,31.4,19.9,0000.0,0012.07,0007.14,0005.81
2022-06-18 10:25:00,,0823.6,5.00,0.00,29.7,27.6,00.0,38.5,31.4,20.0,0000.0,0011.95,0007.08,0005.80
2022-06-18 10:26:00,,0823.6,5.00,0.00,29.7,27.7,00.0,38.5,31.4,20.0,0000.0,0011.83,0007.06,0005.80
2022-06-18 10:27:00,,0823.5,4.99,0.00,29.7,27.9,00.0,38.5,31.4,20.0,0000.0,0011.56,0007.09,0005.83
2022-06-18 10:28:00,,0823.6,5.00,0.00,29.6,28.0,00.0,38.5,31.4,20.1,0000.0,0011.67,0007.15,0005.86
2022-06-18 10:29:00,,0823.6,5.00,0.00,29.6,28.1,00.0,38.5,31.5,20.2,0000.0,0011.78,0007.18,0005.89
2022-06-18 10:30:00,,0823.6,5.00,0.00,29.6,28.2,00.0,38.5,31.5,20.2,0000.0,0012.54,0007.23,0005.91
2022-06-18 10:31:00,,0823.6,5.00,0.00,29.6,28.3,00.0,38.5,31.5,20.2,0000.0,0012.74,0007.28,0005.95
2022-06-18 10:32:00,,0823.6,5.00,0.00,29.7,28.4,00.0,38.5,31.5,20.2,0000.0,0013.07,0007.29,0005.97
2022-06-18 10:33:00,,0823.7,5.00,0.00,29.7,28.5,00.0,38.5,31.6,20.2,0000.0,0013.17,0007.32,0006.00
2022-06-18 10:34:00,,0823.7,5.00,0.00,29.7,28.6,00.0,38.5,31.6,20.2,0000.0,0013.16,0007.35,0006.03
2022-06-18 10:35:00,,0823.7,5.01,0.00,29.7,28.6,00.0,38.5,31.6,20.2,0001.2,0013.04,0007.37,0006.08
2022-06-18 10:36:00,,0823.7,5.00,0.00,29.7,28.7,00.0,38.5,31.7,20.2,0001.4,0012.97,0007.42,0006.15
2022-06-18 10:37:00,,0823.7,5.00,0.00,29.8,28.8,00.0,38.6,31.7,20.3,0001.3,0012.85,0007.43,0006.22
2022-06-18 10:38:00,,0823.7,4.99,0.00,29.8,28.8,00.0,38.6,31.7,20.3,0001.5,0012.75,0007.45,0006.28
2022-06-18 10:39:00,,0823.7,5.00,0.00,29.8,28.9,00.0,38.6,31.7,20.3,0001.3,0012.71,0007.49,0006.35
2022-06-18 10:40:00,,0823.7,5.00,0.00,29.8,28.9,00.0,38.6,31.8,20.4,0001.5,0013.01,0007.51,0006.39
2022-06-18 10:41:00,,0823.7,5.01,0.00,29.9,28.9,00.0,38.6,31.7,20.4,0001.4,0012.41,0007.53,0006.45
2022-06-18 10:42:00,,0823.7,5.00,0.00,29.9,29.0,00.0,38.6,31.8,20.5,0001.4,0012.35,0007.56,0006.49
2022-06-18 10:43:00,,0823.7,4.99,0.00,29.9,29.0,00.0,38.7,31.8,20.4,0001.1,0012.17,0007.60,0006.56
2022-06-18 10:44:00,,0823.7,5.01,0.00,29.9,29.0,00.0,38.7,31.9,20.4,0000.0,0012.78,0007.65,0006.61
2022-06-18 10:45:00,,0823.7,5.00,0.00,29.9,29.1,00.0,38.7,31.9,20.4,0000.0,0012.70,0007.67,0006.66
2022-06-18 10:46:00,,0823.7,5.00,0.00,30.0,28.9,00.0,38.7,31.9,20.4,0000.0,0012.88,0007.75,0006.71
2022-06-18 10:47:00,,0823.7,4.99,0.00,29.9,28.1,00.0,38.6,31.6,20.4,0000.0,0013.01,0007.82,0006.75
2022-06-18 10:48:00,,0823.7,5.01,0.00,29.8,27.6,00.0,38.6,31.5,20.5,0000.0,0013.13,0007.88,0006.76
2022-06-18 10:49:00,,0823.7,5.00,0.00,29.8,27.5,00.0,38.6,31.4,20.6,0000.0,0013.20,0007.91,0006.79
2022-06-18 10:50:00,,0823.7,5.00,0.00,29.7,27.6,00.0,38.6,31.4,20.6,0000.0,0013.34,0007.97,0006.80
2022-06-18 10:51:00,,0823.7,5.00,0.00,29.7,27.7,00.0,38.5,31.4,20.7,0000.0,0013.14,0008.00,0006.81
2022-06-18 10:52:00,,0823.7,5.00,0.00,29.7,27.8,00.0,38.5,31.4,20.7,0000.0,0013.17,0008.00,0006.81
2022-06-18 10:53:00,,0823.7,5.02,0.00,29.7,28.0,00.0,38.5,31.4,20.8,0000.0,0013.20,0008.04,0006.81
2022-06-18 10:54:00,,0823.7,4.99,0.00,29.7,28.1,00.0,38.5,31.5,20.8,0000.0,0013.11,0008.05,0006.81
2022-06-18 10:55:00,,0823.7,4.99,0.00,29.7,28.2,00.0,38.5,31.5,20.8,0000.0,0012.56,0008.08,0006.82
2022-06-18 10:56:00,,0823.7,5.00,0.00,29.7,28.3,00.0,38.5,31.5,20.8,0000.0,0012.66,0008.13,0006.82
2022-06-18 10:57:00,,0823.7,4.99,0.00,29.7,28.4,00.0,38.5,31.5,20.8,0000.0,0012.97,0008.23,0006.83
2022-06-18 10:58:00,,0823.7,5.00,0.00,29.7,28.5,00.0,38.5,31.6,20.9,0000.0,0013.05,0008.25,0006.85
2022-06-18 10:59:00,,0823.6,5.01,0.00,29.7,28.6,00.0,38.5,31.6,20.9,0000.0,0013.40,0008.32,0006.88
